Plattsmouth, NE

2:36 AM CST on December 13, 2017 (GMT -0600)
Plattsmouth Municipal

Weather History for KPMV - March, 2013

Change the Weather History Date:

Tuesday, March 12, 2013

  Actual Average (KOFF) Record (KOFF)
Temperature  
Mean Temperature 29 °F -  
Max Temperature 34 °F 43 °F 75 °F (2015)
Min Temperature 24 °F 25 °F -14 °F (1998)
Degree Days  
Heating Degree Days 36    
Moisture  
Dew Point 22 °F    
Average Humidity 72    
Maximum Humidity 86    
Minimum Humidity 60    
Precipitation  
Precipitation 0.00 in - - ()
Sea Level Pressure  
Sea Level Pressure 30.16 in    
Wind  
Wind Speed 12 mph (WNW)    
Max Wind Speed 25 mph    
Max Gust Speed 33 mph    
Visibility 10 miles    
Events      
Averages and records for this station are not official NWS values.
T = Trace of Precipitation, MM = Missing Value Source: NWS Daily Summary

Daily Weather History Graph

Daily Weather History Graph

Search for Another Location

Airport or City:

Trip Planner

Search our weather history database for the weather conditions in past years. The results will help you decide how hot, cold, wet, or windy it might be!

Date:

Astronomy

Mar. 12, 2013 Rise Set
Actual Time 7:39 AM CDT 7:27 PM CDT
Civil Twilight 7:12 AM CDT 7:54 PM CDT
Nautical Twilight 6:40 AM CDT 8:26 PM CDT
Astronomical Twilight 6:08 AM CDT 8:58 PM CDT
Moon 7:46 AM CDT (3/12) 8:44 PM CDT (3/12)
Length of Visible Light 12h 42m
Length of Day
11h 47m
New Moon, 1% of the Moon is Illuminated
Mar 12
New Moon
Mar 19
First Quarter
Mar 27
Full
Apr 2
Last Quarter
Apr 10
New

Hourly Weather History & Observations

Time (CDT) Temp. Windchill Dew Point Humidity Pressure Visibility Wind Dir Wind Speed Gust Speed Precip Events Conditions
12:15 AM 25.7 °F 18.0 °F 17.6 °F 71% 30.00 in 10.0 mi WNW 6.9 mph - N/A   Clear
12:35 AM 27.5 °F 18.6 °F 19.8 °F 73% 30.00 in 10.0 mi WNW 9.2 mph - N/A   Clear
12:55 AM 28.0 °F 20.8 °F 20.8 °F 74% 30.01 in 10.0 mi WNW 6.9 mph - N/A   Clear
1:15 AM 28.4 °F 18.5 °F 21.0 °F 74% 30.00 in 10.0 mi NW 11.5 mph - N/A   Clear
1:35 AM 27.0 °F 18.0 °F 20.8 °F 78% 30.00 in 10.0 mi WNW 9.2 mph - N/A   Clear
1:55 AM 27.1 °F 18.2 °F 21.2 °F 78% 30.02 in 10.0 mi WNW 9.2 mph - N/A   Clear
2:15 AM 26.6 °F 17.5 °F 21.2 °F 80% 30.04 in 10.0 mi West 9.2 mph - N/A   Clear
2:35 AM 26.6 °F 17.5 °F 21.2 °F 80% 30.04 in 10.0 mi WNW 9.2 mph - N/A   Clear
2:55 AM 26.8 °F 17.7 °F 21.2 °F 79% 30.04 in 10.0 mi NW 9.2 mph - N/A   Clear
3:15 AM 25.7 °F 16.4 °F 21.0 °F 82% 30.04 in 10.0 mi NW 9.2 mph - N/A   Clear
3:35 AM 24.6 °F 16.7 °F 20.3 °F 84% 30.04 in 10.0 mi WNW 6.9 mph - N/A   Clear
3:55 AM 24.8 °F 17.9 °F 20.3 °F 83% 30.04 in 10.0 mi WNW 5.8 mph - N/A   Clear
4:15 AM 24.8 °F 16.9 °F 20.7 °F 84% 30.04 in 10.0 mi NW 6.9 mph - N/A   Clear
4:35 AM 24.8 °F 17.9 °F 21.0 °F 86% 30.04 in 10.0 mi West 5.8 mph - N/A   Clear
4:55 AM 25.3 °F 18.5 °F 21.6 °F 86% 30.03 in 10.0 mi WSW 5.8 mph - N/A   Clear
5:15 AM 24.8 °F 17.9 °F 21.2 °F 86% 30.03 in 10.0 mi WSW 5.8 mph - N/A   Clear
5:35 AM 24.6 °F 17.7 °F 20.5 °F 84% 30.04 in 10.0 mi WSW 5.8 mph - N/A   Clear
5:55 AM 26.1 °F 17.6 °F 21.4 °F 82% 30.04 in 10.0 mi WSW 8.1 mph - N/A   Clear
6:15 AM 26.2 °F 17.1 °F 21.4 °F 82% 30.05 in 10.0 mi WSW 9.2 mph - N/A   Clear
6:35 AM 26.6 °F 16.8 °F 21.2 °F 80% 30.06 in 10.0 mi West 10.4 mph - N/A   Clear
6:55 AM 27.5 °F 18.0 °F 21.4 °F 78% 30.06 in 10.0 mi West 10.4 mph - N/A   Clear
7:15 AM 27.9 °F 18.4 °F 21.2 °F 76% 30.07 in 10.0 mi West 10.4 mph - N/A   Clear
7:35 AM 28.4 °F 18.0 °F 21.7 °F 76% 30.07 in 10.0 mi West 12.7 mph - N/A   Clear
7:55 AM 30.9 °F 20.2 °F 21.9 °F 69% 30.08 in 10.0 mi WNW 15.0 mph 19.6 mph N/A   Clear
8:15 AM 31.5 °F 21.4 °F 22.5 °F 69% 30.09 in 10.0 mi WNW 13.8 mph 19.6 mph N/A   Clear
8:35 AM 31.8 °F 21.4 °F 22.8 °F 69% 30.10 in 10.0 mi WNW 15.0 mph 18.4 mph N/A   Clear
8:55 AM 31.6 °F 21.2 °F 22.6 °F 69% 30.11 in 10.0 mi WNW 15.0 mph 20.7 mph N/A   Clear
9:15 AM 31.1 °F 20.9 °F 21.9 °F 69% 30.12 in 10.0 mi WNW 13.8 mph 20.7 mph N/A   Scattered Clouds
9:35 AM 32.0 °F 23.0 °F 22.1 °F 67% 30.13 in 10.0 mi WNW 11.5 mph 18.4 mph N/A   Overcast
9:55 AM 32.0 °F 22.1 °F 22.1 °F 67% 30.14 in 10.0 mi WNW 13.8 mph 21.9 mph N/A   Overcast
10:15 AM 32.2 °F 21.8 °F 22.5 °F 67% 30.14 in 10.0 mi WNW 15.0 mph 20.7 mph N/A   Overcast
10:35 AM 32.9 °F 22.4 °F 22.8 °F 66% 30.14 in 10.0 mi WNW 16.1 mph 23.0 mph N/A   Overcast
10:55 AM 33.3 °F 22.1 °F 23.5 °F 68% 30.15 in 10.0 mi WNW 18.4 mph 24.2 mph N/A   Overcast
11:15 AM 33.8 °F 21.0 °F 23.5 °F 66% 30.16 in 10.0 mi WNW 25.3 mph 31.1 mph N/A   Overcast
11:35 AM 33.8 °F 21.9 °F 23.9 °F 67% 30.16 in 10.0 mi WNW 21.9 mph 27.6 mph N/A   Overcast
11:55 AM 33.4 °F 22.3 °F 23.9 °F 68% 30.17 in 10.0 mi WNW 18.4 mph 29.9 mph N/A   Mostly Cloudy
12:15 PM 33.3 °F 22.1 °F 23.9 °F 69% 30.18 in 10.0 mi WNW 18.4 mph 27.6 mph N/A   Overcast
12:35 PM 34.0 °F 22.4 °F 24.3 °F 68% 30.18 in 10.0 mi WNW 20.7 mph 26.5 mph N/A   Overcast
12:55 PM 33.8 °F 22.5 °F 23.9 °F 67% 30.19 in 10.0 mi NW 19.6 mph 26.5 mph N/A   Overcast
1:15 PM 33.8 °F 22.8 °F 23.9 °F 67% 30.20 in 10.0 mi NW 18.4 mph 25.3 mph N/A   Overcast
1:35 PM 33.3 °F 20.9 °F 23.7 °F 68% 30.21 in 10.0 mi WNW 23.0 mph 28.8 mph N/A   Overcast
1:55 PM 33.4 °F 21.1 °F 23.0 °F 66% 30.20 in 10.0 mi NW 23.0 mph 27.6 mph N/A   Overcast
2:15 PM 32.9 °F 21.6 °F 23.2 °F 67% 30.21 in 10.0 mi NW 18.4 mph - N/A   Overcast
2:35 PM 32.9 °F 21.3 °F 22.8 °F 66% 30.21 in 10.0 mi WNW 19.6 mph 26.5 mph N/A   Overcast
2:55 PM 32.4 °F 20.6 °F 23.2 °F 69% 30.21 in 10.0 mi WNW 19.6 mph 26.5 mph N/A   Overcast
3:15 PM 32.5 °F 19.6 °F 22.1 °F 65% 30.21 in 10.0 mi NW 24.2 mph 28.8 mph N/A   Overcast
3:35 PM 32.5 °F 20.8 °F 22.5 °F 66% 30.22 in 10.0 mi NW 19.6 mph 28.8 mph N/A   Overcast
3:55 PM 32.4 °F 19.7 °F 21.4 °F 64% 30.22 in 10.0 mi NW 23.0 mph 31.1 mph N/A   Overcast
4:15 PM 32.9 °F 21.0 °F 21.6 °F 63% 30.22 in 10.0 mi NW 20.7 mph - N/A   Overcast
4:35 PM 32.7 °F 21.1 °F 22.8 °F 67% 30.22 in 10.0 mi NW 19.6 mph 23.0 mph N/A   Overcast
4:55 PM 32.4 °F 21.7 °F 23.0 °F 68% 30.23 in 10.0 mi NW 16.1 mph 24.2 mph N/A   Overcast
5:15 PM 32.0 °F 22.1 °F 23.0 °F 69% 30.24 in 10.0 mi NW 13.8 mph 23.0 mph N/A   Overcast
5:35 PM 32.0 °F 20.1 °F 22.5 °F 68% 30.24 in 10.0 mi WNW 19.6 mph 25.3 mph N/A   Overcast
5:55 PM 32.0 °F 20.1 °F 21.9 °F 66% 30.24 in 10.0 mi NW 19.6 mph 25.3 mph N/A   Overcast
6:15 PM 32.0 °F 21.6 °F 22.6 °F 68% 30.24 in 10.0 mi NW 15.0 mph 20.7 mph N/A   Overcast
6:35 PM 31.6 °F 19.7 °F 21.9 °F 67% 30.25 in 10.0 mi NW 19.6 mph - N/A   Overcast
6:55 PM 31.5 °F 19.4 °F 21.9 °F 68% 30.25 in 10.0 mi NW 19.6 mph 24.2 mph N/A   Overcast
7:15 PM 31.1 °F 19.3 °F 20.8 °F 66% 30.25 in 10.0 mi NW 18.4 mph 24.2 mph N/A   Overcast
7:35 PM 30.9 °F 19.1 °F 20.3 °F 65% 30.26 in 10.0 mi NW 18.4 mph 25.3 mph N/A   Overcast
7:55 PM 30.9 °F 17.2 °F 18.5 °F 60% 30.26 in 10.0 mi NW 25.3 mph 33.4 mph N/A   Overcast
8:15 PM 30.7 °F 18.5 °F 19.6 °F 63% 30.27 in 10.0 mi NW 19.6 mph - N/A   Overcast
8:35 PM 30.0 °F 19.5 °F 19.9 °F 66% 30.28 in 10.0 mi NW 13.8 mph - N/A   Overcast
8:55 PM 29.5 °F 18.4 °F 20.1 °F 68% 30.29 in 10.0 mi NW 15.0 mph 18.4 mph N/A   Mostly Cloudy
9:15 PM 28.8 °F 19.5 °F 20.3 °F 71% 30.29 in 10.0 mi NW 10.4 mph - N/A   Scattered Clouds
9:35 PM 28.6 °F 18.2 °F 20.3 °F 71% 30.29 in 10.0 mi NW 12.7 mph - N/A   Scattered Clouds
9:55 PM 28.0 °F 19.3 °F 20.1 °F 72% 30.30 in 10.0 mi NW 9.2 mph - N/A   Scattered Clouds
10:15 PM 27.3 °F 19.1 °F 20.3 °F 75% 30.31 in 10.0 mi NW 8.1 mph - N/A   Scattered Clouds
10:35 PM 26.2 °F 17.8 °F 19.9 °F 77% 30.31 in 10.0 mi NW 8.1 mph - N/A   Scattered Clouds
10:55 PM 26.2 °F 17.8 °F 19.9 °F 77% 30.31 in 10.0 mi NW 8.1 mph - N/A   Clear
11:15 PM 25.3 °F 16.7 °F 19.4 °F 78% 30.32 in 10.0 mi NW 8.1 mph - N/A   Clear
11:35 PM 24.8 °F 16.9 °F 19.4 °F 80% 30.32 in 10.0 mi WNW 6.9 mph - N/A   Clear
11:55 PM 24.8 °F 16.9 °F 19.0 °F 79% 30.33 in 10.0 mi NW 6.9 mph - N/A   Clear